Flag for Finland Weather past 2 weeks in Kokkola, Finland

Now
19 °F

Clear.


Feels Like: 13 °F
Forecast: 12 / 20 °F
Wind: 5 mph from North

Location: Kruunupyy

Current Time: Dec 27, 2014 at 4:23:41 AM

Latest Report: Dec 27, 2014 at 3:50 AM


Visibility: 10 mi

Pressure: 29.71 "Hg

Humidity: 93%

Dew point: 18 °F

Location of KokkolaLocation

Historic Weather in Kokkola — Graph

°F

Kokkola temperature yesterday

Maximum temperature yesterday: 27 °F (at 10:50 PM)
Minimum temperature yesterday: 10 °F (at 8:20 AM)
Average temperature yesterday: 20 °F

Past Weeks' High & Low Weather Summary

 TemperatureHumidityPressure
High39 °F (Dec 15, 7:20 AM)100% (Dec 12, 8:20 AM)29.80 "Hg (Dec 12, 8:20 AM)
Low-6 °F (Dec 25, 1:50 AM)81% (Dec 15, 7:20 AM)28.74 "Hg (Dec 20, 2:50 AM)
Average25 °F95%29.33 "Hg
* Reported Dec 12 3:20 AM — Dec 27 3:20 AM, Kokkola, Weather by CustomWeather, © 2014

Note: Actual official high and low records may vary slightly from our data, if they occured in-between our weather recording intervals... More about our weather records

Advertising

Kokkola weather history for previous 24 hours

 ConditionsComfort  
Time TempWeatherWind HumidityBarometerVisibility
3:20 AM
Dec 27
21 °FClear.5 mph100%29.68 "Hg10 mi
2:50 AM21 °FClear.6 mph100%29.68 "Hg10 mi
2:20 AM23 °FPassing clouds.8 mph93%29.68 "HgN/A
1:50 AM25 °FSnow flurries. Partly cloudy.5 mph100%29.65 "HgN/A
1:20 AM27 °FSnow flurries. Partly cloudy.6 mph93%29.65 "HgN/A
12:50 AM27 °FSnow showers. Partly cloudy.7 mph93%29.65 "Hg4 mi
12:20 AM27 °FSnow flurries. Partly cloudy.6 mph93%29.62 "Hg1 mi
11:50 PM
Dec 26
27 °FLight snow. Mostly cloudy.7 mph93%29.62 "Hg3 mi
11:20 PM27 °FSnow. Ice fog.7 mph93%29.62 "Hg1 mi
10:50 PM27 °FLight snow. Overcast.6 mph93%29.62 "Hg3 mi
10:20 PM25 °FLight snow. Passing clouds.6 mph100%29.62 "Hg5 mi
9:50 PM23 °FLight snow. Overcast.3 mph100%29.62 "HgN/A
9:20 PM23 °FLight snow. Overcast.3 mph93%29.62 "Hg3 mi
8:50 PM21 °FPassing clouds.5 mph93%29.65 "HgN/A
8:20 PM19 °FPartly cloudy.5 mph93%29.62 "HgN/A
7:50 PM18 °FPassing clouds.5 mph93%29.65 "HgN/A
7:20 PM19 °FPassing clouds.5 mph93%29.65 "HgN/A
6:50 PM19 °FPassing clouds.3 mph93%29.65 "HgN/A
6:20 PM19 °FPassing clouds.3 mph93%29.65 "HgN/A
5:50 PM19 °FPassing clouds.3 mph93%29.65 "HgN/A
5:20 PM21 °FPassing clouds.3 mph93%29.65 "HgN/A
4:50 PM23 °FPassing clouds.5 mph93%29.65 "HgN/A
4:20 PM23 °FPartly cloudy.3 mph93%29.68 "HgN/A
3:50 PM25 °FPassing clouds.2 mph86%29.68 "HgN/A
3:20 PM25 °FPassing clouds.5 mph93%29.65 "HgN/A
2:50 PM25 °FPartly cloudy.3 mph93%29.68 "HgN/A
2:20 PM25 °FPartly sunny.3 mph93%29.65 "HgN/A
1:50 PM25 °FOvercast.5 mph93%29.65 "HgN/A
1:20 PM23 °FPartly sunny.2 mph100%29.65 "HgN/A
12:50 PM23 °FMostly cloudy.3 mph93%29.65 "HgN/A
12:20 PM23 °FPartly sunny.2 mph93%29.65 "HgN/A
11:50 AM21 °FOvercast.3 mph93%29.65 "HgN/A
11:20 AM19 °FPartly sunny.3 mph93%29.65 "HgN/A
10:50 AM19 °FPartly sunny.3 mph93%29.65 "HgN/A
10:20 AM12 °FPartly sunny.3 mph92%29.65 "HgN/A
9:50 AM12 °FPartly cloudy.3 mph85%29.65 "HgN/A
9:20 AM14 °FPassing clouds.3 mph100%29.65 "HgN/A
8:50 AM16 °FClear.3 mph93%29.65 "Hg10 mi
8:20 AM10 °FClear.5 mph92%29.65 "Hg10 mi
7:50 AM16 °FClear.3 mph93%29.65 "Hg10 mi
7:20 AM12 °FClear.5 mph92%29.65 "Hg10 mi
6:50 AM12 °FClear.3 mph100%29.68 "Hg10 mi
6:20 AM16 °FClear.3 mph93%29.68 "Hg10 mi
5:50 AM16 °FLight freezing rain. Clear.3 mph100%29.68 "Hg1 mi
5:20 AM14 °FLight freezing rain. Passing clouds.2 mph100%29.68 "Hg1 mi
4:20 AM18 °FPartly cloudy.2 mph93%29.71 "HgN/A
Weather by CustomWeather, © 2014

See weather overviewHow to use our weather pages